QPF
0.06 0.14 0.21 0.16 0.13 0.14 0.13 0.12 0.11 0.11 0.12 0.14 0.14 0.11 0.08 0.07 0.06 0.07 0.09 0.09 0.10 0.10 0.13 0.18 0.21 0.20 0.18 0.16 0.13 0.13 0.12 0.09 0.09 0.07 0.06 0.07 0.06 0.05 0.05 0.04 0.04 0.03 0.04
0.06 0.13 0.18 0.13 0.10 0.10 0.11 0.12 0.12 0.14 0.13 0.14 0.16 0.15 0.13 0.12 0.09 0.10 0.12 0.12 0.11 0.10 0.14 0.21 0.20 0.17 0.16 0.16 0.15 0.15 0.13 0.11 0.10 0.09 0.09 0.07 0.06 0.04 0.05 0.05 0.04 0.03 0.04
0.03 0.08 0.12 0.11 0.08 0.07 0.08 0.10 0.11 0.12 0.10 0.09 0.11 0.12 0.12 0.14 0.14 0.16 0.14 0.12 0.12 0.11 0.12 0.14 0.15 0.13 0.14 0.12 0.12 0.12 0.12 0.11 0.10 0.10 0.08 0.05 0.04 0.04 0.05 0.06 0.05 0.04 0.04
0.01 0.05 0.12 0.12 0.09 0.06 0.07 0.08 0.11 0.13 0.10 0.07 0.09 0.12 0.17 0.20 0.20 0.18 0.13 0.11 0.11 0.10 0.08 0.08 0.09 0.08 0.08 0.08 0.08 0.07 0.08 0.09 0.08 0.06 0.05 0.03 0.03 0.04 0.04 0.03 0.04 0.04 0.04
0.03 0.07 0.12 0.10 0.09 0.08 0.07 0.08 0.12 0.15 0.14 0.11 0.09 0.11 0.16 0.20 0.20 0.17 0.14 0.10 0.08 0.06 0.06 0.05 0.04 0.04 0.06 0.05 0.05 0.05 0.07 0.09 0.08 0.04 0.02 0.02 0.02 0.03 0.04 0.02 0.02 0.03 0.03
0.07 0.07 0.09 0.09 0.09 0.08 0.08 0.08 0.11 0.16 0.18 0.14 0.11 0.09 0.09 0.12 0.14 0.14 0.13 0.09 0.06 0.05 0.04 0.04 0.03 0.03 0.04 0.04 0.05 0.06 0.06 0.05 0.06 0.03 0.02 0.02 0.02 0.02 0.03 0.03 0.02 0.02 0.02
0.11 0.09 0.11 0.12 0.14 0.11 0.09 0.08 0.09 0.10 0.12 0.14 0.15 0.13 0.11 0.13 0.17 0.15 0.11 0.08 0.06 0.05 0.05 0.04 0.04 0.04 0.04 0.04 0.05 0.07 0.07 0.05 0.04 0.03 0.01 0.01 0.02 0.03 0.04 0.03 0.03 0.03 0.03
0.08 0.13 0.17 0.20 0.23 0.21 0.15 0.10 0.08 0.08 0.08 0.09 0.12 0.14 0.16 0.16 0.14 0.10 0.08 0.07 0.07 0.07 0.07 0.05 0.05 0.05 0.06 0.06 0.06 0.05 0.06 0.05 0.02 0.02 0.02 0.01 0.01 0.03 0.05 0.04 0.05 0.04 0.04
0.05 0.12 0.16 0.17 0.17 0.19 0.18 0.14 0.11 0.08 0.06 0.06 0.08 0.12 0.13 0.11 0.08 0.06 0.06 0.06 0.06 0.05 0.06 0.05 0.05 0.04 0.04 0.05 0.06 0.06 0.07 0.05 0.03 0.03 0.02 0.01 0.02 0.04 0.08 0.06 0.06 0.05 0.05
0.02 0.05 0.10 0.11 0.09 0.10 0.12 0.13 0.11 0.09 0.09 0.08 0.09 0.10 0.09 0.08 0.06 0.05 0.04 0.04 0.04 0.04 0.04 0.04 0.04 0.04 0.04 0.04 0.05 0.07 0.08 0.06 0.05 0.04 0.02 0.02 0.02 0.04 0.07 0.07 0.07 0.06 0.05
0.02 0.03 0.06 0.05 0.03 0.03 0.06 0.10 0.13 0.15 0.16 0.15 0.10 0.08 0.06 0.04 0.04 0.03 0.03 0.04 0.05 0.04 0.04 0.04 0.03 0.03 0.04 0.03 0.05 0.06 0.06 0.04 0.05 0.04 0.03 0.03 0.03 0.04 0.05 0.06 0.05 0.05 0.04
0.02 0.02 0.02 0.03 0.02 0.02 0.03 0.05 0.08 0.09 0.10 0.10 0.07 0.04 0.03 0.02 0.02 0.02 0.03 0.04 0.05 0.05 0.04 0.05 0.04 0.03 0.02 0.02 0.03 0.03 0.03 0.03 0.02 0.03 0.04 0.04 0.04 0.04 0.05 0.07 0.08 0.10 0.08
0.02 0.02 0.02 0.02 0.02 0.01 0.02 0.02 0.02 0.03 0.03 0.04 0.03 0.02 0.02 0.01 0.02 0.02 0.03 0.02 0.02 0.02 0.02 0.02 0.02 0.01 0.01 0.01 0.01 0.02 0.02 0.02 0.02 0.02 0.04 0.04 0.05 0.05 0.05 0.07 0.09 0.12 0.08
0.02 0.02 0.02 0.02 0.02 0.01 0.01 0.01 0.01 0.01 0.01 0.02 0.02 0.02 0.01 0.01 0.02 0.02 0.01 0.01 0.01 0.01 0.01 0.02 0.02 0.02 0.01 0.01 0.02 0.03 0.02 0.02 0.01 0.01 0.02 0.03 0.04 0.05 0.06 0.07 0.08 0.08 0.08
0.02 0.02 0.02 0.02 0.02 0.02 0.02 0.01 0.01 0.02 0.02 0.02 0.01 0.01 0.00 0.01 0.01 0.02 0.01 0.01 0.01 0.01 0.02 0.02 0.02 0.03 0.03 0.03 0.04 0.04 0.04 0.03 0.02 0.01 0.02 0.03 0.03 0.04 0.05 0.06 0.07 0.08 0.07
0.01 0.01 0.01 0.01 0.01 0.02 0.02 0.02 0.02 0.02 0.02 0.02 0.02 0.02 0.01 0.01 0.01 0.02 0.03 0.02 0.02 0.02 0.03 0.03 0.03 0.03 0.03 0.04 0.05 0.07 0.05 0.05 0.03 0.03 0.03 0.03 0.03 0.04 0.05 0.05 0.07 0.07 0.08
0.02 0.02 0.01 0.01 0.01 0.02 0.03 0.03 0.03 0.02 0.01 0.02 0.02 0.03 0.03 0.03 0.03 0.03 0.03 0.03 0.03 0.03 0.03 0.03 0.03 0.02 0.03 0.04 0.06 0.08 0.08 0.06 0.04 0.04 0.03 0.03 0.04 0.04 0.05 0.06 0.06 0.06 0.07
0.02 0.02 0.01 0.01 0.01 0.01 0.02 0.02 0.02 0.02 0.01 0.01 0.02 0.03 0.03 0.03 0.03 0.04 0.03 0.02 0.02 0.02 0.03 0.03 0.03 0.03 0.03 0.04 0.04 0.04 0.05 0.05 0.03 0.03 0.02 0.03 0.04 0.04 0.05 0.07 0.06 0.06 0.08
0.01 0.01 0.00 0.00 0.01 0.01 0.01 0.01 0.01 0.01 0.01 0.01 0.01 0.02 0.03 0.03 0.04 0.04 0.05 0.03 0.02 0.02 0.02 0.02 0.04 0.04 0.03 0.02 0.02 0.02 0.03 0.03 0.03 0.03 0.02 0.03 0.04 0.04 0.05 0.06 0.07 0.07 0.09
0.00 0.00 0.00 0.00 0.00 0.01 0.01 0.01 0.01 0.02 0.02 0.02 0.03 0.03 0.03 0.04 0.04 0.03 0.04 0.03 0.01 0.02 0.02 0.02 0.02 0.03 0.03 0.02 0.01 0.01 0.01 0.02 0.02 0.03 0.03 0.03 0.04 0.04 0.04 0.04 0.06 0.06 0.07
0.00 0.00 0.00 0.00 0.00 0.01 0.02 0.04 0.02 0.02 0.02 0.03 0.03 0.03 0.03 0.05 0.06 0.04 0.03 0.02 0.02 0.01 0.02 0.02 0.02 0.02 0.02 0.03 0.02 0.01 0.01 0.01 0.02 0.04 0.05 0.04 0.05 0.05 0.05 0.06 0.06 0.06 0.05
0.00 0.00 0.01 0.01 0.00 0.00 0.01 0.02 0.04 0.04 0.04 0.04 0.04 0.04 0.05 0.07 0.07 0.04 0.03 0.02 0.01 0.01 0.02 0.02 0.04 0.02 0.02 0.02 0.02 0.02 0.02 0.02 0.02 0.03 0.05 0.06 0.07 0.07 0.08 0.08 0.08 0.08 0.07
0.01 0.01 0.01 0.01 0.01 0.00 0.00 0.01 0.02 0.03 0.02 0.03 0.03 0.03 0.04 0.06 0.06 0.05 0.04 0.02 0.01 0.02 0.02 0.03 0.03 0.03 0.03 0.02 0.02 0.03 0.03 0.03 0.03 0.03 0.04 0.07 0.10 0.11 0.10 0.09 0.10 0.10 0.09
0.04 0.02 0.01 0.01 0.01 0.01 0.00 0.00 0.01 0.02 0.01 0.03 0.04 0.03 0.02 0.03 0.03 0.04 0.05 0.04 0.03 0.03 0.02 0.02 0.02 0.02 0.02 0.02 0.02 0.03 0.02 0.02 0.03 0.04 0.05 0.08 0.10 0.11 0.12 0.12 0.11 0.11 0.11
0.05 0.04 0.03 0.02 0.02 0.02 0.01 0.02 0.01 0.01 0.01 0.03 0.04 0.03 0.02 0.02 0.02 0.03 0.04 0.05 0.04 0.03 0.03 0.03 0.01 0.02 0.03 0.02 0.03 0.03 0.02 0.02 0.02 0.03 0.05 0.08 0.11 0.12 0.13 0.13 0.11 0.10 0.11
0.06 0.06 0.07 0.04 0.03 0.03 0.04 0.03 0.03 0.02 0.01 0.02 0.03 0.02 0.01 0.02 0.02 0.03 0.03 0.04 0.03 0.02 0.02 0.03 0.02 0.02 0.02 0.02 0.01 0.01 0.02 0.03 0.03 0.04 0.04 0.06 0.08 0.11 0.14 0.16 0.15 0.13 0.10
MSLP
1015.30 1014.56 1013.95 1013.53 1013.31 1013.26 1013.32 1013.41 1013.45 1013.38 1013.16 1012.82 1012.40 1011.96 1011.58 1011.28 1011.07 1010.95 1010.86 1010.77 1010.66 1010.52 1010.39 1010.28 1010.26 1010.33 1010.50 1010.73 1011.01 1011.27 1011.51 1011.72 1011.93 1012.17 1012.47 1012.84 1013.26 1013.68 1014.05 1014.33 1014.50 1014.58 1014.61
1015.22 1014.64 1014.19 1013.89 1013.75 1013.73 1013.76 1013.79 1013.75 1013.62 1013.38 1013.08 1012.76 1012.48 1012.26 1012.13 1012.06 1012.03 1011.98 1011.88 1011.72 1011.52 1011.32 1011.17 1011.10 1011.14 1011.28 1011.50 1011.76 1012.02 1012.26 1012.47 1012.67 1012.88 1013.12 1013.41 1013.71 1014.01 1014.26 1014.44 1014.56 1014.63 1014.70
1015.13 1014.72 1014.42 1014.25 1014.19 1014.20 1014.22 1014.19 1014.09 1013.89 1013.64 1013.36 1013.12 1012.96 1012.88 1012.89 1012.94 1012.98 1012.97 1012.88 1012.71 1012.48 1012.24 1012.06 1011.97 1011.99 1012.13 1012.34 1012.59 1012.84 1013.06 1013.25 1013.42 1013.58 1013.75 1013.95 1014.14 1014.33 1014.49 1014.61 1014.69 1014.78 1014.91
1015.09 1014.82 1014.66 1014.60 1014.61 1014.65 1014.67 1014.60 1014.45 1014.21 1013.93 1013.67 1013.48 1013.38 1013.39 1013.49 1013.61 1013.70 1013.72 1013.64 1013.47 1013.24 1013.01 1012.84 1012.76 1012.79 1012.93 1013.14 1013.37 1013.60 1013.80 1013.96 1014.09 1014.20 1014.31 1014.42 1014.54 1014.65 1014.75 1014.84 1014.92 1015.05 1015.23
1015.13 1014.97 1014.91 1014.93 1015.00 1015.07 1015.08 1015.00 1014.82 1014.55 1014.26 1014.00 1013.82 1013.75 1013.79 1013.90 1014.04 1014.14 1014.16 1014.09 1013.93 1013.73 1013.54 1013.40 1013.36 1013.42 1013.57 1013.78 1014.00 1014.21 1014.38 1014.50 1014.60 1014.68 1014.75 1014.82 1014.90 1014.97 1015.04 1015.12 1015.23 1015.38 1015.61
1015.29 1015.19 1015.17 1015.23 1015.34 1015.42 1015.44 1015.36 1015.17 1014.90 1014.60 1014.34 1014.15 1014.07 1014.08 1014.16 1014.26 1014.33 1014.33 1014.25 1014.12 1013.95 1013.81 1013.73 1013.74 1013.83 1014.00 1014.20 1014.41 1014.59 1014.74 1014.85 1014.93 1015.00 1015.07 1015.14 1015.21 1015.28 1015.36 1015.44 1015.56 1015.73 1015.97
1015.56 1015.46 1015.45 1015.51 1015.61 1015.70 1015.73 1015.66 1015.48 1015.23 1014.94 1014.68 1014.48 1014.36 1014.33 1014.35 1014.38 1014.39 1014.35 1014.25 1014.12 1013.99 1013.90 1013.87 1013.93 1014.05 1014.23 1014.42 1014.61 1014.77 1014.90 1015.00 1015.10 1015.19 1015.29 1015.39 1015.49 1015.59 1015.67 1015.77 1015.89 1016.05 1016.28
1015.90 1015.77 1015.72 1015.75 1015.84 1015.92 1015.94 1015.89 1015.74 1015.52 1015.26 1015.02 1014.81 1014.67 1014.59 1014.54 1014.50 1014.43 1014.34 1014.21 1014.08 1013.98 1013.93 1013.94 1014.02 1014.16 1014.33 1014.51 1014.67 1014.81 1014.93 1015.05 1015.17 1015.31 1015.47 1015.62 1015.76 1015.88 1015.98 1016.07 1016.17 1016.30 1016.48
1016.26 1016.07 1015.98 1015.97 1016.02 1016.08 1016.10 1016.05 1015.94 1015.76 1015.55 1015.34 1015.15 1015.00 1014.89 1014.79 1014.68 1014.56 1014.42 1014.27 1014.14 1014.05 1014.02 1014.05 1014.14 1014.28 1014.43 1014.58 1014.71 1014.83 1014.95 1015.09 1015.25 1015.44 1015.65 1015.86 1016.04 1016.18 1016.27 1016.33 1016.38 1016.46 1016.58
1016.57 1016.35 1016.22 1016.17 1016.19 1016.22 1016.22 1016.18 1016.09 1015.95 1015.78 1015.62 1015.47 1015.34 1015.22 1015.10 1014.97 1014.82 1014.65 1014.49 1014.35 1014.27 1014.24 1014.28 1014.37 1014.49 1014.61 1014.73 1014.83 1014.93 1015.05 1015.20 1015.40 1015.63 1015.88 1016.12 1016.33 1016.47 1016.54 1016.56 1016.55 1016.55 1016.61
1016.79 1016.58 1016.44 1016.38 1016.36 1016.36 1016.34 1016.29 1016.20 1016.09 1015.96 1015.84 1015.74 1015.64 1015.55 1015.45 1015.32 1015.16 1015.00 1014.84 1014.71 1014.64 1014.62 1014.66 1014.74 1014.84 1014.93 1015.02 1015.09 1015.18 1015.29 1015.45 1015.65 1015.91 1016.18 1016.43 1016.62 1016.74 1016.77 1016.74 1016.67 1016.62 1016.61
1016.93 1016.75 1016.64 1016.59 1016.56 1016.53 1016.48 1016.41 1016.31 1016.19 1016.09 1016.00 1015.94 1015.89 1015.84 1015.77 1015.67 1015.54 1015.40 1015.27 1015.16 1015.11 1015.10 1015.15 1015.22 1015.31 1015.39 1015.45 1015.51 1015.58 1015.68 1015.83 1016.03 1016.27 1016.52 1016.74 1016.91 1016.98 1016.98 1016.90 1016.78 1016.68 1016.63
1017.00 1016.90 1016.84 1016.81 1016.78 1016.73 1016.65 1016.54 1016.40 1016.28 1016.17 1016.10 1016.06 1016.05 1016.04 1016.01 1015.96 1015.88 1015.79 1015.69 1015.63 1015.60 1015.62 1015.69 1015.77 1015.87 1015.94 1016.01 1016.06 1016.12 1016.20 1016.32 1016.49 1016.69 1016.89 1017.06 1017.17 1017.20 1017.15 1017.04 1016.90 1016.77 1016.70
1017.04 1017.02 1017.03 1017.04 1017.02 1016.95 1016.84 1016.68 1016.51 1016.35 1016.22 1016.15 1016.12 1016.13 1016.16 1016.17 1016.17 1016.14 1016.10 1016.06 1016.04 1016.06 1016.12 1016.22 1016.33 1016.45 1016.55 1016.63 1016.68 1016.74 1016.80 1016.89 1017.00 1017.14 1017.26 1017.36 1017.41 1017.39 1017.31 1017.18 1017.03 1016.90 1016.82
1017.07 1017.13 1017.20 1017.24 1017.24 1017.16 1017.02 1016.83 1016.63 1016.43 1016.28 1016.19 1016.16 1016.17 1016.22 1016.26 1016.30 1016.32 1016.33 1016.35 1016.38 1016.45 1016.56 1016.71 1016.86 1017.02 1017.15 1017.26 1017.34 1017.40 1017.44 1017.49 1017.54 1017.60 1017.64 1017.66 1017.64 1017.58 1017.47 1017.34 1017.21 1017.09 1017.01
1017.11 1017.22 1017.33 1017.40 1017.41 1017.33 1017.18 1016.98 1016.76 1016.54 1016.37 1016.27 1016.22 1016.23 1016.28 1016.34 1016.40 1016.46 1016.52 1016.59 1016.68 1016.80 1016.97 1017.16 1017.36 1017.56 1017.74 1017.89 1017.99 1018.05 1018.09 1018.10 1018.09 1018.07 1018.03 1017.98 1017.90 1017.80 1017.69 1017.57 1017.45 1017.35 1017.25
1017.18 1017.29 1017.40 1017.48 1017.49 1017.43 1017.30 1017.11 1016.90 1016.70 1016.53 1016.42 1016.37 1016.37 1016.40 1016.47 1016.54 1016.63 1016.72 1016.83 1016.97 1017.15 1017.36 1017.59 1017.84 1018.09 1018.30 1018.48 1018.61 1018.69 1018.71 1018.70 1018.65 1018.57 1018.47 1018.35 1018.23 1018.11 1017.99 1017.88 1017.78 1017.67 1017.56
1017.25 1017.32 1017.40 1017.47 1017.49 1017.45 1017.36 1017.22 1017.06 1016.90 1016.76 1016.67 1016.61 1016.60 1016.62 1016.68 1016.76 1016.86 1016.98 1017.13 1017.30 1017.52 1017.76 1018.03 1018.31 1018.58 1018.83 1019.03 1019.19 1019.28 1019.31 1019.29 1019.21 1019.10 1018.97 1018.82 1018.67 1018.53 1018.41 1018.30 1018.20 1018.08 1017.91
1017.30 1017.31 1017.34 1017.37 1017.40 1017.39 1017.36 1017.30 1017.23 1017.14 1017.06 1016.99 1016.94 1016.92 1016.93 1016.97 1017.04 1017.15 1017.29 1017.46 1017.67 1017.91 1018.18 1018.47 1018.76 1019.04 1019.29 1019.51 1019.68 1019.79 1019.84 1019.84 1019.77 1019.67 1019.53 1019.37 1019.22 1019.08 1018.95 1018.83 1018.71 1018.56 1018.33
1017.34 1017.27 1017.23 1017.23 1017.25 1017.29 1017.33 1017.37 1017.39 1017.40 1017.38 1017.35 1017.32 1017.29 1017.28 1017.30 1017.36 1017.46 1017.61 1017.80 1018.03 1018.29 1018.57 1018.86 1019.14 1019.41 1019.65 1019.87 1020.05 1020.18 1020.27 1020.30 1020.28 1020.21 1020.10 1019.98 1019.84 1019.71 1019.58 1019.45 1019.30 1019.09 1018.80
1017.36 1017.21 1017.10 1017.06 1017.09 1017.17 1017.28 1017.42 1017.55 1017.65 1017.70 1017.71 1017.68 1017.64 1017.60 1017.59 1017.63 1017.72 1017.87 1018.08 1018.32 1018.59 1018.86 1019.13 1019.38 1019.62 1019.84 1020.05 1020.23 1020.39 1020.52 1020.61 1020.66 1020.66 1020.63 1020.56 1020.46 1020.35 1020.23 1020.08 1019.90 1019.66 1019.31
1017.37 1017.16 1017.00 1016.92 1016.95 1017.06 1017.24 1017.47 1017.68 1017.86 1017.97 1018.00 1017.97 1017.90 1017.83 1017.78 1017.78 1017.86 1018.01 1018.21 1018.46 1018.72 1018.98 1019.23 1019.44 1019.64 1019.82 1020.00 1020.18 1020.36 1020.54 1020.71 1020.85 1020.95 1021.01 1021.02 1020.99 1020.92 1020.81 1020.67 1020.47 1020.19 1019.81
1017.40 1017.15 1016.94 1016.84 1016.86 1016.99 1017.22 1017.50 1017.78 1018.01 1018.15 1018.19 1018.14 1018.03 1017.91 1017.81 1017.78 1017.83 1017.96 1018.16 1018.41 1018.66 1018.90 1019.11 1019.28 1019.43 1019.57 1019.71 1019.88 1020.08 1020.31 1020.55 1020.79 1021.00 1021.16 1021.27 1021.32 1021.31 1021.24 1021.12 1020.92 1020.65 1020.27
1017.44 1017.18 1016.95 1016.82 1016.82 1016.95 1017.20 1017.51 1017.82 1018.07 1018.22 1018.25 1018.17 1018.02 1017.85 1017.70 1017.62 1017.64 1017.75 1017.94 1018.18 1018.42 1018.64 1018.81 1018.93 1019.03 1019.11 1019.22 1019.37 1019.57 1019.84 1020.14 1020.46 1020.77 1021.04 1021.25 1021.39 1021.46 1021.45 1021.37 1021.21 1020.97 1020.64
1017.50 1017.23 1016.99 1016.83 1016.81 1016.93 1017.17 1017.48 1017.79 1018.05 1018.19 1018.20 1018.08 1017.89 1017.67 1017.47 1017.35 1017.34 1017.44 1017.61 1017.84 1018.06 1018.25 1018.39 1018.47 1018.51 1018.54 1018.60 1018.72 1018.91 1019.19 1019.53 1019.91 1020.30 1020.66 1020.96 1021.19 1021.34 1021.41 1021.40 1021.32 1021.15 1020.90
1017.54 1017.28 1017.02 1016.83 1016.78 1016.87 1017.08 1017.37 1017.67 1017.91 1018.04 1018.03 1017.89 1017.67 1017.42 1017.19 1017.05 1017.01 1017.09 1017.25 1017.46 1017.67 1017.83 1017.94 1017.98 1017.97 1017.95 1017.96 1018.03 1018.20 1018.46 1018.81 1019.22 1019.65 1020.07 1020.45 1020.76 1020.99 1021.15 1021.24 1021.25 1021.19 1021.05
Thickness
5768 5773 5775 5777 5777 5777 5778 5779 5780 5781 5781 5781 5781 5781 5781 5780 5780 5780 5779 5779 5778 5777 5777 5776 5775 5774 5772 5771 5769 5767 5765 5763 5762 5760 5759 5757 5756 5756 5755 5754 5752 5751 5749
5770 5773 5774 5775 5775 5776 5776 5777 5778 5779 5779 5779 5779 5779 5779 5779 5778 5777 5777 5777 5776 5776 5776 5774 5773 5772 5770 5769 5767 5765 5763 5762 5760 5759 5757 5756 5755 5754 5753 5752 5750 5749 5748
5771 5772 5773 5774 5774 5774 5775 5775 5776 5777 5777 5777 5777 5777 5777 5777 5777 5776 5776 5775 5775 5774 5774 5772 5771 5770 5768 5766 5765 5763 5761 5760 5758 5757 5756 5754 5753 5752 5752 5750 5749 5748 5747
5770 5770 5771 5772 5772 5773 5773 5773 5774 5775 5775 5775 5776 5775 5775 5774 5774 5774 5773 5773 5772 5772 5771 5770 5769 5768 5766 5764 5763 5761 5760 5758 5757 5755 5754 5752 5752 5751 5750 5749 5748 5748 5747
5769 5769 5770 5770 5770 5770 5771 5771 5772 5773 5773 5773 5773 5773 5773 5772 5772 5771 5771 5771 5770 5769 5769 5768 5767 5766 5764 5762 5761 5759 5758 5757 5755 5754 5752 5751 5751 5750 5749 5748 5747 5747 5746
5767 5767 5768 5769 5769 5769 5769 5769 5770 5770 5771 5771 5771 5771 5771 5770 5770 5769 5769 5768 5768 5767 5766 5765 5764 5763 5762 5760 5759 5758 5757 5755 5754 5753 5751 5750 5750 5749 5748 5747 5746 5745 5744
5766 5767 5767 5768 5768 5767 5767 5767 5768 5769 5769 5769 5769 5769 5769 5768 5768 5767 5766 5766 5765 5764 5763 5762 5762 5761 5760 5758 5757 5756 5755 5754 5753 5751 5750 5749 5749 5748 5747 5746 5745 5744 5743
5766 5766 5766 5767 5766 5766 5766 5766 5767 5767 5767 5767 5768 5768 5767 5766 5765 5765 5764 5763 5763 5762 5761 5760 5759 5758 5757 5757 5756 5755 5754 5753 5752 5751 5750 5749 5748 5748 5746 5745 5745 5743 5742
5765 5765 5766 5766 5765 5765 5765 5765 5765 5765 5765 5765 5765 5766 5765 5765 5764 5763 5762 5761 5761 5760 5759 5758 5757 5757 5756 5756 5755 5754 5753 5752 5751 5750 5749 5748 5747 5747 5746 5745 5743 5742 5741
5764 5764 5764 5765 5765 5764 5764 5764 5763 5763 5763 5763 5763 5763 5763 5763 5762 5761 5760 5760 5759 5759 5758 5757 5756 5755 5755 5754 5754 5753 5752 5751 5750 5749 5748 5747 5746 5746 5745 5744 5743 5742 5741
5763 5763 5764 5764 5763 5763 5763 5762 5762 5762 5762 5761 5761 5762 5761 5761 5760 5759 5759 5759 5758 5758 5757 5756 5756 5754 5754 5753 5753 5752 5751 5750 5749 5748 5747 5746 5746 5745 5744 5743 5742 5741 5740
5761 5762 5763 5764 5763 5763 5762 5761 5761 5761 5760 5760 5760 5760 5759 5759 5759 5758 5758 5758 5757 5756 5756 5755 5754 5753 5753 5752 5751 5751 5749 5748 5748 5747 5746 5746 5745 5744 5743 5742 5741 5740 5739
5763 5764 5764 5764 5763 5762 5761 5761 5760 5760 5760 5759 5759 5758 5758 5757 5757 5757 5757 5756 5756 5755 5754 5753 5753 5752 5751 5751 5750 5749 5748 5747 5747 5747 5746 5745 5744 5743 5743 5742 5741 5739 5738
5764 5764 5765 5764 5763 5762 5761 5761 5760 5760 5759 5759 5758 5757 5757 5756 5755 5755 5754 5754 5754 5753 5752 5752 5751 5751 5750 5750 5749 5748 5747 5747 5746 5746 5745 5744 5744 5743 5742 5741 5740 5739 5738
5765 5765 5765 5765 5764 5763 5762 5761 5761 5760 5759 5759 5758 5757 5756 5755 5754 5754 5753 5753 5753 5752 5752 5751 5750 5750 5750 5749 5748 5747 5746 5746 5746 5745 5745 5744 5744 5743 5742 5741 5740 5739 5738
5767 5767 5767 5766 5765 5764 5763 5762 5761 5760 5759 5759 5758 5757 5756 5755 5754 5753 5753 5752 5752 5752 5751 5751 5750 5749 5748 5748 5747 5746 5746 5745 5745 5745 5744 5743 5743 5743 5742 5741 5739 5738 5737
5770 5769 5768 5768 5767 5765 5764 5763 5762 5761 5760 5759 5758 5757 5756 5756 5755 5754 5752 5752 5751 5751 5751 5750 5749 5748 5747 5747 5746 5746 5745 5744 5744 5743 5743 5742 5741 5741 5740 5739 5738 5737 5736
5773 5771 5771 5771 5768 5766 5765 5764 5763 5762 5761 5759 5758 5757 5756 5755 5754 5753 5752 5751 5751 5750 5750 5749 5748 5747 5745 5744 5744 5744 5743 5743 5743 5742 5741 5741 5740 5739 5738 5738 5737 5736 5735
5776 5774 5772 5772 5770 5768 5766 5765 5764 5763 5761 5760 5759 5758 5757 5756 5755 5754 5752 5751 5751 5750 5749 5749 5747 5745 5743 5742 5742 5742 5741 5741 5741 5740 5740 5739 5738 5737 5736 5736 5735 5734 5733
5779 5777 5775 5773 5771 5769 5767 5765 5763 5762 5761 5761 5760 5759 5758 5757 5756 5755 5753 5751 5750 5749 5748 5747 5745 5744 5742 5742 5742 5740 5739 5739 5739 5738 5738 5737 5737 5735 5734 5733 5733 5732 5731
5780 5778 5776 5773 5772 5770 5767 5764 5762 5760 5761 5761 5760 5760 5759 5757 5756 5755 5754 5752 5750 5749 5747 5746 5744 5742 5740 5740 5738 5735 5736 5737 5737 5736 5736 5735 5734 5733 5732 5732 5731 5730 5729
5781 5779 5777 5775 5774 5772 5770 5768 5766 5764 5763 5762 5761 5761 5760 5758 5757 5756 5755 5753 5751 5749 5747 5746 5744 5741 5739 5739 5735 5730 5728 5729 5733 5734 5733 5732 5732 5731 5731 5730 5729 5728 5727
5782 5781 5781 5778 5776 5774 5773 5770 5767 5764 5763 5761 5760 5760 5760 5759 5758 5757 5756 5753 5751 5749 5747 5745 5744 5741 5737 5737 5736 5731 5725 5722 5725 5729 5730 5730 5729 5729 5728 5728 5727 5726 5725
5787 5786 5784 5781 5778 5776 5774 5770 5766 5762 5759 5760 5760 5760 5760 5760 5759 5757 5756 5754 5752 5750 5748 5746 5745 5742 5739 5735 5734 5733 5731 5728 5723 5722 5725 5726 5726 5726 5726 5726 5725 5723 5722
5792 5789 5786 5783 5780 5778 5775 5772 5768 5764 5763 5762 5761 5760 5759 5759 5759 5757 5756 5754 5752 5750 5748 5746 5745 5743 5740 5737 5734 5732 5729 5727 5725 5721 5719 5721 5722 5723 5723 5723 5722 5721 5720
5794 5791 5788 5784 5781 5779 5776 5773 5770 5766 5764 5761 5760 5759 5758 5758 5758 5757 5756 5753 5751 5749 5748 5746 5745 5742 5740 5738 5735 5733 5730 5726 5724 5721 5718 5717 5717 5719 5720 5720 5719 5718 5717